Date String (YYYY-MM-DD hh:mm:ss) UTC,Instrument flags,absolute air pressure of the measurement (hPa),sample flow rate (lpm),inlet stack bypass flow (lpm),air temperature of the measurement (°C),ambient temperature measured by the external sensor (°C),aerosol sample conditioner tube jacket temperature (°C),OPC LED temperature (°C),internal box temperature (°C),relative humidity of the measurement (%),span deviation,mass concentration of particles derived from Lorenz-Mie calculation of OPC scattering (μg/m³),mass concentration of particles derived from Lorenz-Mie calculation of OPC scattering (μg/m³),mass concentration of particles derived from Lorenz-Mie calculation of OPC scattering (μg/m³)
DateTimeUTC,F1_M11,P_M11,Q1_M11,Q2_M11,T1_M11,T2_M11,T3_M11,T4_M11,T5_M11,U1_M11,ZSPAN_M11,X2_M11,X0_M11,X1_M11
2024-05-10 21:00:00,SystemResetWarning,0835.4,5.00,000.00,025.0,024.7,000.0,033.1,026.9,021.1,0000.0,0005.09,0010.13,0004.70
2024-05-10 21:01:00,SystemResetWarning,0835.3,5.00,000.00,025.1,024.7,000.0,033.2,027.0,020.9,0000.0,0005.07,0010.12,0004.68
2024-05-10 21:02:00,SystemResetWarning,0835.1,5.00,000.00,025.1,024.8,000.0,033.2,027.0,020.7,0000.0,0005.04,0010.11,0004.64
2024-05-10 21:03:00,SystemResetWarning,0834.7,5.00,000.00,025.2,024.8,000.0,033.3,027.0,021.4,0000.0,0004.97,0009.64,0004.61
2024-05-10 21:04:00,SystemResetWarning,0834.8,4.98,000.00,025.0,023.2,000.0,033.3,026.2,021.6,0000.0,0004.94,0009.08,0004.58
2024-05-10 21:05:00,SystemResetWarning,0835.1,5.02,000.00,024.6,022.0,000.0,033.3,025.5,021.4,0000.0,0004.95,0009.30,0004.55
2024-05-10 21:06:00,SystemResetWarning,0835.1,5.00,000.00,024.5,022.2,000.0,033.3,025.5,021.6,0000.0,0004.91,0009.24,0004.51
2024-05-10 21:07:00,SystemResetWarning,0835.0,4.99,000.00,024.5,022.5,000.0,033.1,025.7,021.8,0000.0,0004.84,0009.89,0004.45
2024-05-10 21:08:00,SystemResetWarning,0835.0,5.00,000.00,024.5,022.9,000.0,033.0,026.0,022.0,0000.0,0004.76,0009.78,0004.39
2024-05-10 21:09:00,SystemResetWarning,0835.1,5.01,000.00,024.5,023.2,000.0,033.0,026.2,021.7,0000.0,0004.72,0010.03,0004.35
2024-05-10 21:10:00,SystemResetWarning,0835.2,5.01,000.00,024.6,023.4,000.0,033.0,026.3,022.2,0000.0,0004.70,0009.22,0004.32
2024-05-10 21:11:00,SystemResetWarning,0834.7,5.00,000.00,024.6,023.7,000.0,033.0,026.4,021.3,0000.0,0004.67,0008.98,0004.31
2024-05-10 21:12:00,SystemResetWarning,0834.6,4.99,000.00,024.7,023.9,000.0,033.0,026.5,021.3,0000.0,0004.66,0009.15,0004.29
2024-05-10 21:13:00,SystemResetWarning,0834.8,4.99,000.00,024.7,024.0,000.0,033.0,026.6,020.6,0000.0,0004.61,0009.52,0004.26
2024-05-10 21:14:00,SystemResetWarning,0834.6,5.01,000.00,024.8,024.2,000.0,033.0,026.6,020.8,0000.0,0004.53,0009.31,0004.22
2024-05-10 21:15:00,SystemResetWarning,0835.1,5.01,000.00,024.8,024.3,000.0,033.0,026.6,020.7,0000.0,0004.49,0009.21,0004.19
2024-05-10 21:16:00,SystemResetWarning,0835.1,5.01,000.00,024.9,024.4,000.0,033.0,026.7,020.7,0000.0,0004.46,0008.99,0004.16
2024-05-10 21:17:00,SystemResetWarning,0835.1,4.99,000.00,024.9,024.5,000.0,033.1,026.8,020.2,0000.0,0004.43,0008.91,0004.11
2024-05-10 21:18:00,SystemResetWarning,0835.1,4.99,000.00,025.0,024.5,000.0,033.1,026.8,020.5,0000.0,0004.39,0008.17,0004.07
2024-05-10 21:19:00,SystemResetWarning,0835.1,5.01,000.00,025.0,024.6,000.0,033.1,026.9,020.6,0000.0,0004.39,0008.28,0004.06
2024-05-10 21:20:00,SystemResetWarning,0834.6,5.00,000.00,025.1,024.7,000.0,033.2,026.9,021.1,0000.0,0004.39,0007.81,0004.06
2024-05-10 21:21:00,SystemResetWarning,0834.5,5.01,000.00,025.1,024.7,000.0,033.2,027.0,021.1,0000.0,0004.38,0007.89,0004.06
2024-05-10 21:22:00,SystemResetWarning,0834.5,5.00,000.00,025.1,024.5,000.0,033.3,026.8,021.1,0000.0,0004.38,0008.26,0004.05
2024-05-10 21:23:00,SystemResetWarning,0834.4,4.98,000.00,024.9,022.5,000.0,033.3,025.8,021.6,0000.0,0004.38,0008.11,0004.04
2024-05-10 21:24:00,SystemResetWarning,0834.4,5.02,000.00,024.5,022.0,000.0,033.3,025.5,022.8,0000.0,0004.43,0007.70,0004.06
2024-05-10 21:25:00,SystemResetWarning,0834.4,5.00,000.00,024.5,022.3,000.0,033.2,025.6,022.6,0000.0,0004.52,0007.84,0004.11
2024-05-10 21:26:00,SystemResetWarning,0834.4,5.01,000.00,024.5,022.7,000.0,033.1,025.8,023.2,0000.0,0004.59,0008.04,0004.16
2024-05-10 21:27:00,SystemResetWarning,0834.5,4.99,000.00,024.5,023.0,000.0,033.0,026.0,022.6,0000.0,0004.62,0008.12,0004.20
2024-05-10 21:28:00,SystemResetWarning,0834.4,5.00,000.00,024.5,023.3,000.0,033.0,026.2,022.4,0000.0,0004.65,0008.79,0004.25
2024-05-10 21:29:00,SystemResetWarning,0834.4,5.00,000.00,024.6,023.5,000.0,032.9,026.3,022.2,0000.0,0004.70,0008.89,0004.30
2024-05-10 21:30:00,SystemResetWarning,0834.4,5.00,000.00,024.6,023.7,000.0,032.9,026.3,022.0,0000.0,0004.75,0008.74,0004.36
2024-05-10 21:31:00,SystemResetWarning,0834.4,5.00,000.00,024.7,023.9,000.0,032.9,026.5,021.7,0000.0,0004.80,0008.86,0004.41
2024-05-10 21:32:00,SystemResetWarning,0834.4,5.00,000.00,024.7,024.0,000.0,032.9,026.5,021.7,0000.0,0004.82,0008.87,0004.43
2024-05-10 21:33:00,SystemResetWarning,0834.4,5.00,000.00,024.8,024.2,000.0,033.0,026.6,021.5,0000.0,0004.86,0008.52,0004.48
2024-05-10 21:34:00,SystemResetWarning,0834.4,5.00,000.00,024.8,024.3,000.0,033.0,026.7,022.0,0000.0,0004.89,0008.89,0004.51
2024-05-10 21:35:00,SystemResetWarning,0834.3,5.00,000.00,024.9,024.4,000.0,033.0,026.8,022.0,0000.0,0004.90,0009.53,0004.53
2024-05-10 21:36:00,SystemResetWarning,0834.3,5.00,000.00,024.9,024.5,000.0,033.1,026.8,022.2,0000.0,0004.96,0009.95,0004.55
2024-05-10 21:37:00,SystemResetWarning,0834.4,5.00,000.00,025.0,024.6,000.0,033.1,026.8,022.2,0000.0,0004.96,0010.10,0004.55
2024-05-10 21:38:00,SystemResetWarning,0834.5,5.00,000.00,025.0,024.7,000.0,033.1,026.9,022.5,0000.0,0004.99,0010.15,0004.57
2024-05-10 21:39:00,SystemResetWarning,0834.5,5.00,000.00,025.1,024.7,000.0,033.2,027.0,021.7,0000.0,0005.03,0009.80,0004.56
2024-05-10 21:40:00,SystemResetWarning,0834.2,5.00,000.00,025.1,024.6,000.0,033.2,026.9,021.0,0000.0,0005.07,0010.11,0004.58
2024-05-10 21:41:00,SystemResetWarning,0834.3,4.99,000.00,024.9,022.7,000.0,033.3,026.0,021.5,0000.0,0005.11,0010.45,0004.62
2024-05-10 21:42:00,SystemResetWarning,0834.1,5.02,000.00,024.6,021.9,000.0,033.3,025.5,021.7,0000.0,0005.15,0010.42,0004.66
2024-05-10 21:43:00,SystemResetWarning,0834.1,5.00,000.00,024.4,022.2,000.0,033.2,025.5,022.1,0000.0,0005.25,0010.65,0004.74
2024-05-10 21:44:00,SystemResetWarning,0834.1,5.00,000.00,024.4,022.5,000.0,033.0,025.7,022.6,0000.0,0005.29,0010.68,0004.78
2024-05-10 21:45:00,SystemResetWarning,0834.2,5.00,000.00,024.4,022.8,000.0,033.0,026.0,022.6,0000.0,0005.30,0010.45,0004.81
2024-05-10 21:46:00,SystemResetWarning,0834.2,4.99,000.00,024.5,023.1,000.0,032.9,026.1,021.9,0000.0,0005.34,0009.75,0004.85
2024-05-10 21:47:00,SystemResetWarning,0834.2,4.99,000.00,024.5,023.4,000.0,032.9,026.3,021.8,0000.0,0005.31,0009.47,0004.88
2024-05-10 21:48:00,SystemResetWarning,0834.1,5.00,000.00,024.6,023.6,000.0,032.9,026.4,021.3,0000.0,0005.33,0009.23,0004.92
2024-05-10 21:49:00,SystemResetWarning,0834.1,5.00,000.00,024.6,023.8,000.0,032.9,026.5,021.2,0000.0,0005.36,0009.22,0004.97
2024-05-10 21:50:00,SystemResetWarning,0834.1,5.00,000.00,024.7,024.0,000.0,032.9,026.5,021.7,0000.0,0005.35,0009.06,0005.02
2024-05-10 21:51:00,SystemResetWarning,0834.1,5.01,000.00,024.7,024.1,000.0,032.9,026.6,021.9,0000.0,0005.36,0008.80,0005.04
2024-05-10 21:52:00,SystemResetWarning,0834.1,5.00,000.00,024.8,024.3,000.0,033.0,026.7,021.0,0000.0,0005.36,0008.60,0005.03
2024-05-10 21:53:00,SystemResetWarning,0834.1,5.00,000.00,024.9,024.4,000.0,033.0,026.8,020.2,0000.0,0005.33,0008.80,0005.01
2024-05-10 21:54:00,SystemResetWarning,0834.0,5.01,000.00,024.9,024.5,000.0,033.0,026.8,020.5,0000.0,0005.25,0008.67,0004.97
2024-05-10 21:55:00,SystemResetWarning,0834.0,5.00,000.00,025.0,024.6,000.0,033.1,026.8,020.8,0000.0,0005.21,0008.88,0004.94
2024-05-10 21:56:00,SystemResetWarning,0834.1,5.00,000.00,025.0,024.6,000.0,033.1,026.9,020.7,0000.0,0005.18,0008.88,0004.91
2024-05-10 21:57:00,SystemResetWarning,0834.0,5.01,000.00,025.1,024.7,000.0,033.1,027.0,020.6,0000.0,0005.15,0008.81,0004.88
2024-05-10 21:58:00,SystemResetWarning,0834.0,4.98,000.00,025.1,024.0,000.0,033.2,026.5,020.7,0000.0,0005.13,0008.73,0004.85
2024-05-10 21:59:00,SystemResetWarning,0833.9,5.01,000.00,024.7,022.0,000.0,033.2,025.4,020.9,0000.0,0005.11,0008.77,0004.82
